Location: Acheville
(50.3840°N, 2.8827°E)
Time: 10:59:00
(UTC+00:00)

H-2A R/B - Pass Details

Date: 24 October 2021
Orbit: 528 x 651 km, 98.3° (Epoch: 30 November)

Event Time Altitude Azimuth Distance (km) Brightness Sun altitude
Rises 18:18:45 0° 165° (SSE) 2,881 5.8 -16.6°
Reaches altitude 10° 18:20:57 10° 165° (SSE) 1,961 5.0 -16.9°
Maximum altitude 18:25:13 86° 251° (WSW) 603 2.4 -17.6°
Drops below altitude 10° 18:29:21 10° 345° (NNW) 1,901 5.3 -18.3°
Sets 18:31:28 0° 346° (NNW) 2,785 6.2 -18.6°
